ESGR

Details ICAO ESGR (KVB)
Name SKOVDE
Region Sweden
Timezone Europe/Stockholm (UTC+2.0)
Plans Departing 7
Arriving 8
Stats Elevation 324 ft / 99 m (AMSL)
Location 58.456379° 13.972632°
Runways 1
Magnetic Variation 4.484° E
Sunrise 2018-05-24 02:21:11 UTC / 2018-05-24 04:21:11 Local
Sunset 2018-05-24 19:43:34 UTC / 2018-05-24 21:43:34 Local
Advertisement - Login to hide

Runways

ID Width Length Bearing (true) Bearing (mag) Surface Threshold Offset Overrun Length
01 98 ft / 30 m 5,686 ft / 1,733 m 15.68° 11.20° Asphalt 0 ft / 0 m 80 ft / 24 m
19 98 ft / 30 m 5,686 ft / 1,733 m 195.69° 191.21° Asphalt 0 ft / 0 m 80 ft / 24 m

Approach Navaids

Runway Type Ident Frequency Range Bearing (true) Bearing (mag) Slope Elevation
19 Localiser SY 108.30 MHz 18 nm / 33 km 195.71° 191.22° - 324 ft / 99 m (AMSL)
19 Glidescope SY 108.30 MHz 10 nm / 19 km 195.68° 191.20° 3.00° 324 ft / 99 m (AMSL)
19 DME SY 108.30 MHz 18 nm / 33 km - - - 328 ft / 100 m (AMSL)

Map

Weather


0- 5 10 15 20 25 30 35+ Temperature / ° C

Clouds and Precipitation
Forecast for 2018-05-24 18:00 UTC. Updated 5 hours ago

Ground ~20,000 ft ~40,000 ft Winds

METAR

ESGR 242220Z AUTO 20003KT 9999 NCD 11/06 Q1028

TAF

Not found

Frequencies

Tower 122.32 MHz AFIS
Warning: Do not use this data for real-world aviation or navigation. No guarantee of current accuracy is given.